EW7774 Weather Reports


time (UTC)temp
C
wind
direction
speed
KPH
gust
KPH
rain 1hr
cm
rain 24hr
cm
rain mn
cm
humidity
%
barometer
mb
20260504141028 16 0 0.0 8.0 0.00 0.00 0.00 46 1014.4
20260504140817 16 216 0.0 8.0 0.00 0.00 0.00 48 1014.0
20260504140525 16 197 0.0 8.0 0.00 0.00 0.00 50 1014.3
20260504140313 16 165 0.0 8.0 0.00 0.00 0.00 49 1014.0
20260504130525 12 0 0.0 4.8 0.00 0.00 0.00 59 1014.8
20260504130340 12 169 0.0 6.4 0.00 0.00 0.00 62 1014.6
20260504120317 10 177 0.0 0.0 0.00 0.00 0.00 69 1014.8
20260504110525 6 0 0.0 0.0 0.00 0.00 0.00 82 1015.2
20260504110332 7 0.0 0.0 0.00 0.00 0.00 83 1015.0
20260504100522 7 0.0 0.0 0.00 0.00 0.00 80 1015.2
20260504100318 7 0.0 0.0 0.00 0.00 0.00 81 1014.9
20260504081829 6 0.0 0.0 0.00 0.00 0.00 86 1015.2
20260504081545 6 0.0 0.0 0.00 0.00 0.00 86 1015.7
20260504081346 6 0.0 0.0 0.00 0.00 0.00 86 1015.2
20260504081029 6 0.0 0.0 0.00 0.00 0.00 86 1015.6
20260504080820 6 0.0 0.0 0.00 0.00 0.00 86 1015.1
20260504080525 6 0.0 0.0 0.00 0.00 0.00 86 1015.5
20260504080317 6 0.0 0.0 0.00 0.00 0.00 86 1015.0
20260504080104 6 0.0 0.0 0.00 0.00 0.00 86 1015.5
20260504070315 5 0.0 0.0 0.00 0.00 0.00 88 1015.3
20260504050526 4 0.0 0.0 0.00 0.00 0.00 87 1016.1
20260504050328 4 0.0 0.0 0.00 0.00 0.00 87 1015.7
20260504045825 4 0.0 0.0 0.00 0.00 0.00 86 1015.8
20260504045525 4 0.0 0.0 0.00 0.00 0.00 86 1016.1
20260504045321 4 0.0 0.0 0.00 0.00 0.00 86 1015.7
20260504045025 4 0.0 0.0 0.00 0.00 0.00 86 1016.2
20260504044817 4 0.0 0.0 0.00 0.00 0.00 86 1015.7
20260504044539 4 0.0 0.0 0.00 0.00 0.00 85 1016.1
20260504044334 4 0.0 0.0 0.00 0.00 0.00 86 1015.7
20260504044025 4 0.0 0.0 0.00 0.00 0.00 85 1016.1
20260504043829 4 0.0 0.0 0.00 0.00 0.00 86 1015.7
20260504043525 4 0.0 0.0 0.00 0.00 0.00 85 1016.1
20260504043325 4 0.0 0.0 0.00 0.00 0.00 86 1015.6
20260504043037 4 0.0 0.0 0.00 0.00 0.00 85 1015.9
20260504042822 5 0.0 0.0 0.00 0.00 0.00 85 1015.6
20260504042526 4 0.0 0.0 0.00 0.00 0.00 84 1016.0
20260504042317 5 0.0 0.0 0.00 0.00 0.00 85 1015.6
20260504042025 4 0.0 0.0 0.00 0.00 0.00 84 1016.0
20260504041818 5 0.0 0.0 0.00 0.00 0.00 85 1015.6
20260504041540 4 0.0 0.0 0.00 0.00 0.00 84 1016.0
20260504041335 5 0.0 0.0 0.00 0.00 0.00 85 1015.6
20260504041022 4 0.0 0.0 0.00 0.00 0.00 84 1015.9
20260504040849 5 0.0 0.0 0.00 0.00 0.00 84 1015.5
20260504040522 5 0.0 0.0 0.00 0.00 0.00 84 1016.0
20260504040321 5 0.0 0.0 0.00 0.00 0.00 84 1015.6
20260504040100 5 0.0 0.0 0.00 0.00 0.00 83 1016.0
20260504035835 5 0.0 0.0 0.00 0.00 0.00 84 1015.6
20260504035525 5 0.0 0.0 0.00 0.00 0.00 83 1016.0
20260504035330 5 0.0 0.0 0.00 0.00 0.00 83 1015.7
20260504035023 5 0.0 0.0 0.00 0.00 0.00 82 1016.1
20260504034824 5 0.0 0.0 0.00 0.00 0.00 83 1015.8
20260504034538 5 0.0 0.0 0.00 0.00 0.00 82 1016.1
20260504034022 5 0.0 0.0 0.00 0.00 0.00 82 1016.0
20260504033844 5 0.0 0.0 0.00 0.00 0.00 82 1015.6
20260504033526 5 0.0 0.0 0.00 0.00 0.00 81 1015.9
20260504033319 5 0.0 0.0 0.00 0.00 0.00 81 1015.5
20260504033038 5 0.0 0.0 0.00 0.00 0.00 81 1015.9
20260504032816 5 0.0 0.0 0.00 0.00 0.00 81 1015.4
20260504032524 5 0.0 0.0 0.00 0.00 0.00 80 1015.8
20260504032334 5 0.0 0.0 0.00 0.00 0.00 80 1015.4
20260504032029 5 0.0 0.0 0.00 0.00 0.00 80 1015.7
20260504031830 5 0.0 0.0 0.00 0.00 0.00 80 1015.4
20260504031537 5 0.0 0.0 0.00 0.00 0.00 80 1015.8
20260504031346 6 0.0 0.0 0.00 0.00 0.00 80 1015.4
20260504031022 5 0.0 0.0 0.00 0.00 0.00 79 1015.7
20260504030841 6 0.0 0.0 0.00 0.00 0.00 79 1015.3
20260504030525 5 0.0 0.0 0.00 0.00 0.00 78 1015.7
20260504030318 6 0.0 0.0 0.00 0.00 0.00 78 1015.3
20260504030044 6 0.0 0.0 0.00 0.00 0.00 78 1015.6
20260504025850 6 0.0 0.0 0.00 0.00 0.00 78 1015.3
20260504025526 6 0.0 0.0 0.00 0.00 0.00 78 1015.6
20260504025323 6 0.0 0.0 0.00 0.00 0.00 77 1015.3
20260504025025 6 0.0 0.0 0.00 0.00 0.00 76 1015.6
20260504024820 6 0.0 0.0 0.00 0.00 0.00 77 1015.1
20260504024539 6 0.0 0.0 0.00 0.00 0.00 76 1015.5
20260504024338 6 0.0 0.0 0.00 0.00 0.00 76 1015.1
20260504024030 6 0.0 0.0 0.00 0.00 0.00 75 1015.5
20260504023813 6 0.0 0.0 0.00 0.00 0.00 75 1015.1
20260504023526 6 0.0 0.0 0.00 0.00 0.00 75 1015.4
20260504023331 6 0.0 0.0 0.00 0.00 0.00 75 1015.1
20260504023037 6 0.0 0.0 0.00 0.00 0.00 74 1015.5
20260504022824 6 0.0 0.0 0.00 0.00 0.00 75 1015.1
20260504022525 6 0.0 0.0 0.00 0.00 0.00 74 1015.4
20260504022318 7 0.0 0.0 0.00 0.00 0.00 74 1015.0
20260504022025 6 0.0 0.0 0.00 0.00 0.00 73 1015.4
20260504021830 7 0.0 0.0 0.00 0.00 0.00 73 1015.0
20260504021537 7 0.0 0.0 0.00 0.00 0.00 72 1015.3
20260504021326 7 0.0 0.0 0.00 0.00 0.00 72 1015.0
20260504021025 7 0.0 0.0 0.00 0.00 0.00 72 1015.3
20260504020822 7 0.0 0.0 0.00 0.00 0.00 72 1014.9
20260504020525 7 0.0 0.0 0.00 0.00 0.00 72 1015.3
20260504020319 7 0.0 0.0 0.00 0.00 0.00 72 1015.0
20260504020037 7 0.0 0.0 0.00 0.00 0.00 70 1015.4
20260504015835 7 0.0 0.0 0.00 0.00 0.00 70 1015.0
20260504015525 7 0.0 0.0 0.00 0.00 0.00 69 1015.4
20260504015348 7 0.0 0.0 0.00 0.00 0.00 69 1014.9
20260504015026 7 0.0 0.0 0.00 0.00 0.00 69 1015.2
20260504014822 7 0.0 0.0 0.00 0.00 0.00 69 1014.9
20260504014542 7 0.0 0.0 0.00 0.00 0.00 67 1015.2
20260504014333 8 0.0 0.0 0.00 0.00 0.00 68 1014.8
20260504014025 7 0.0 0.0 0.00 0.00 0.00 67 1015.2
20260504013825 8 0.0 0.0 0.00 0.00 0.00 67 1014.8
20260504013525 8 0.0 0.0 0.00 0.00 0.00 66 1015.1
20260504013322 8 0.0 0.0 0.00 0.00 0.00 66 1014.8
20260504013042 8 0.0 0.0 0.00 0.00 0.00 65 1015.2
20260504012816 8 0.0 0.0 0.00 0.00 0.00 66 1014.8
20260504012527 8 0.0 0.0 0.00 0.00 0.00 65 1015.1
20260504012312 8 0.0 0.0 0.00 0.00 0.00 65 1014.7
20260504012025 8 0.0 0.0 0.00 0.00 0.00 64 1015.0
20260504011829 9 0.0 0.0 0.00 0.00 0.00 64 1014.6
20260504011540 8 0.0 0.0 0.00 0.00 0.00 63 1015.0
20260504011325 9 0.0 0.0 0.00 0.00 0.00 63 1014.6
20260504011024 9 0.0 0.0 0.00 0.00 0.00 63 1015.0
20260504010822 9 0.0 0.0 0.00 0.00 0.00 62 1014.7
20260504010524 9 0.0 0.0 0.00 0.00 0.00 61 1015.0
20260504010319 10 0.0 0.0 0.00 0.00 0.00 61 1014.7
20260504010037 9 0.0 0.0 0.00 0.00 0.00 60 1015.0
20260504005815 10 0.0 0.0 0.00 0.00 0.00 60 1014.7
20260504005526 10 0.0 0.0 0.00 0.00 0.00 59 1015.0
20260504005331 10 0.0 0.0 0.00 0.00 0.00 59 1014.6
20260504005026 10 0.0 0.0 0.00 0.00 0.00 57 1014.9
20260504004849 10 0.0 0.0 0.00 0.00 0.00 57 1014.5
20260504004544 10 0.0 0.0 0.00 0.00 0.00 57 1014.9
20260504004324 11 0.0 0.0 0.00 0.00 0.00 57 1014.5
20260504004025 10 0.0 0.0 0.00 0.00 0.00 55 1014.8
20260504003820 11 0.0 0.0 0.00 0.00 0.00 56 1014.5
20260504003529 11 0.0 0.0 0.00 0.00 0.00 54 1014.7
20260504003315 11 0.0 0.0 0.00 0.00 0.00 53 1014.4
20260504003036 11 0.0 0.0 0.00 0.00 0.00 52 1014.6
20260504002850 11 0.0 0.0 0.00 0.00 0.00 53 1014.4
20260504002525 11 0.0 0.0 0.00 0.00 0.00 51 1014.7
20260504002324 11 0.0 0.0 0.00 0.00 0.00 51 1014.3
20260504002025 11 0.0 0.0 0.00 0.00 0.00 50 1014.6
20260504001821 12 0.0 0.0 0.00 0.00 0.00 50 1014.3
20260504001539 12 0.0 0.0 0.00 0.00 0.00 49 1014.5
20260504001335 12 0.0 0.0 0.00 0.00 0.00 50 1014.2
20260504001025 12 0.0 0.0 0.00 0.00 0.00 50 1014.5
20260504000849 12 0.0 0.0 0.00 0.00 0.00 48 1014.2
20260504000525 12 0.0 0.0 0.00 0.00 0.00 48 1014.4
20260504000321 12 0.0 0.0 0.00 0.00 0.00 48 1014.1
20260504000042 12 0.0 0.0 0.00 0.00 0.00 48 1014.4
20260503235819 12 0.0 0.0 0.00 0.00 0.00 47 1014.1
20260503235525 12 0.0 0.0 0.00 0.00 0.00 45 1014.3
20260503235316 13 0.0 0.0 0.00 0.00 0.00 45 1014.0
20260503235027 13 0.0 0.0 0.00 0.00 0.00 43 1014.3
20260503234830 13 0.0 0.0 0.00 0.00 0.00 44 1014.0
20260503234540 13 0.0 0.0 0.00 0.00 0.00 44 1014.3
20260503234323 13 265 0.0 0.0 0.00 0.00 0.00 43 1014.1
20260503234025 13 0.0 0.0 0.00 0.00 0.00 43 1014.3
20260503233819 13 265 0.0 0.0 0.00 0.00 0.00 44 1014.0
20260503233525 13 0 0.0 0.0 0.00 0.00 0.00 42 1014.2
20260503233314 13 265 0.0 0.0 0.00 0.00 0.00 42 1013.9
20260503233045 13 0 0.0 0.0 0.00 0.00 0.00 41 1014.2
20260503232831 13 265 0.0 0.0 0.00 0.00 0.00 41 1013.9
20260503232526 13 0 0.0 0.0 0.00 0.00 0.00 40 1014.1
20260503232328 14 265 0.0 0.0 0.00 0.00 0.00 40 1013.9
20260503232026 13 0 0.0 0.0 0.00 0.00 0.00 40 1014.0
20260503231821 14 265 0.0 0.0 0.00 0.00 0.00 41 1013.8
20260503231538 14 0 0.0 0.0 0.00 0.00 0.00 41 1014.0
20260503231317 14 265 0.0 0.0 0.00 0.00 0.00 40 1013.7
20260503231026 14 0 0.0 0.0 0.00 0.00 0.00 38 1013.9
20260503230830 14 265 0.0 0.0 0.00 0.00 0.00 39 1013.7
20260503230526 14 0 0.0 0.0 0.00 0.00 0.00 39 1013.9
20260503230324 15 265 0.0 0.0 0.00 0.00 0.00 40 1013.7
20260503230037 14 0 0.0 0.0 0.00 0.00 0.00 38 1013.9
20260503225821 15 211 0.0 0.0 0.00 0.00 0.00 39 1013.7
20260503225525 14 0 0.0 0.0 0.00 0.00 0.00 39 1013.9
20260503225334 15 210 0.0 0.0 0.00 0.00 0.00 38 1013.8
20260503225025 15 0 0.0 0.0 0.00 0.00 0.00 37 1014.0
20260503224827 15 210 0.0 0.0 0.00 0.00 0.00 38 1013.8
20260503224537 15 0 0.0 0.0 0.00 0.00 0.00 39 1014.0
20260503224319 15 115 0.0 0.0 0.00 0.00 0.00 41 1013.7
20260503224025 15 0 0.0 1.6 0.00 0.00 0.00 38 1014.0
20260503223815 15 115 0.0 1.6 0.00 0.00 0.00 36 1013.7
20260503223528 15 0 0.0 6.4 0.00 0.00 0.00 38 1014.0
20260503223331 15 179 0.0 6.4 0.00 0.00 0.00 36 1013.8
20260503223042 15 0 0.0 6.4 0.00 0.00 0.00 35 1014.1
20260503222824 15 11 0.0 6.4 0.00 0.00 0.00 35 1013.9
20260503222525 15 0 0.0 11.3 0.00 0.00 0.00 35 1014.0
20260503222320 15 266 0.0 9.7 0.00 0.00 0.00 38 1013.8
20260503222026 15 0 0.0 11.3 0.00 0.00 0.00 34 1014.0
20260503221833 15 305 1.6 9.7 0.00 0.00 0.00 35 1013.9
20260503221546 15 196 1.6 8.0 0.00 0.00 0.00 33 1014.1
20260503221347 15 202 0.0 6.4 0.00 0.00 0.00 36 1013.9
20260503221026 15 0 0.0 6.4 0.00 0.00 0.00 35 1014.0
20260503220819 15 270 0.0 6.4 0.00 0.00 0.00 36 1013.9
20260503220528 15 0 0.0 6.4 0.00 0.00 0.00 37 1014.1
20260503220334 15 7 1.6 6.4 0.00 0.00 0.00 35 1013.9
20260503220039 15 0 0.0 8.0 0.00 0.00 0.00 34 1014.1
20260503215828 15 335 0.0 8.0 0.00 0.00 0.00 36 1013.9
20260503215526 15 0 0.0 8.0 0.00 0.00 0.00 34 1014.1
20260503215319 15 325 1.6 8.0 0.00 0.00 0.00 36 1013.9
20260503215025 15 0 0.0 6.4 0.00 0.00 0.00 36 1014.2
20260503214834 15 204 0.0 6.4 0.00 0.00 0.00 36 1014.0
20260503214538 15 345 0.0 12.9 0.00 0.00 0.00 36 1014.3
20260503214328 15 32 0.0 11.3 0.00 0.00 0.00 35 1014.0
20260503214025 15 0 1.6 12.9 0.00 0.00 0.00 33 1014.1
20260503213822 15 286 1.6 11.3 0.00 0.00 0.00 34 1013.9
20260503213525 15 234 0.0 4.8 0.00 0.00 0.00 34 1014.1
20260503213315 15 27 0.0 4.8 0.00 0.00 0.00 37 1014.0
20260503213045 15 0 0.0 14.5 0.00 0.00 0.00 34 1014.2
20260503212830 15 61 0.0 12.9 0.00 0.00 0.00 36 1014.0
20260503212526 15 0 0.0 14.5 0.00 0.00 0.00 37 1014.3
20260503212323 15 230 0.0 12.9 0.00 0.00 0.00 35 1014.1
20260503212026 15 291 0.0 14.5 0.00 0.00 0.00 35 1014.3
20260503211819 15 201 1.6 9.7 0.00 0.00 0.00 35 1014.1
20260503211543 15 305 1.6 11.3 0.00 0.00 0.00 35 1014.3
20260503211332 15 248 1.6 9.7 0.00 0.00 0.00 36 1014.0
20260503211029 15 0 1.6 17.7 0.00 0.00 0.00 34 1014.1
20260503210826 15 150 0.0 17.7 0.00 0.00 0.00 36 1014.0
20260503210531 15 246 0.0 17.7 0.00 0.00 0.00 33 1014.2
20260503210323 15 305 1.6 17.7 0.00 0.00 0.00 36 1014.1
20260503210040 15 348 3.2 17.7 0.00 0.00 0.00 35 1014.4
20260503205816 15 17 1.6 17.7 0.00 0.00 0.00 37 1014.1
20260503205525 15 43 1.6 11.3 0.00 0.00 0.00 34 1014.3
20260503205333 15 87 1.6 6.4 0.00 0.00 0.00 36 1014.1
20260503205025 15 0 0.0 12.9 0.00 0.00 0.00 36 1014.3
20260503204847 15 196 0.0 12.9 0.00 0.00 0.00 39 1014.1
20260503204543 15 0 0.0 12.9 0.00 0.00 0.00 34 1014.4
20260503204319 15 140 3.2 12.9 0.00 0.00 0.00 36 1014.1
20260503204029 15 255 1.6 12.9 0.00 0.00 0.00 36 1014.4
20260503203818 15 21 1.6 11.3 0.00 0.00 0.00 35 1014.1
20260503203530 15 35 0.0 14.5 0.00 0.00 0.00 36 1014.3
20260503203331 15 306 1.6 12.9 0.00 0.00 0.00 36 1014.1
20260503203040 15 0 1.6 16.1 0.00 0.00 0.00 35 1014.5
20260503202845 15 229 3.2 14.5 0.00 0.00 0.00 36 1014.1
20260503202526 15 168 3.2 16.1 0.00 0.00 0.00 34 1014.5
20260503202317 15 268 4.8 14.5 0.00 0.00 0.00 37 1014.2
20260503202026 15 44 1.6 19.3 0.00 0.00 0.00 36 1014.7
20260503201830 15 209 1.6 19.3 0.00 0.00 0.00 38 1014.2
20260503201538 15 0 1.6 19.3 0.00 0.00 0.00 35 1014.7
20260503201323 15 206 3.2 19.3 0.00 0.00 0.00 36 1014.5
20260503201025 15 0 3.2 17.7 0.00 0.00 0.00 35 1014.9
20260503200815 15 182 6.4 16.1 0.00 0.00 0.00 34 1014.3
20260503200525 15 20 0.0 17.7 0.00 0.00 0.00 36 1014.8
20260503200328 15 202 1.6 17.7 0.00 0.00 0.00 36 1014.5
20260503200038 15 209 1.6 17.7 0.00 0.00 0.00 35 1014.9
20260503195822 15 129 3.2 17.7 0.00 0.00 0.00 36 1014.4
20260503195526 15 0 0.0 12.9 0.00 0.00 0.00 37 1014.9
20260503195315 15 181 0.0 12.9 0.00 0.00 0.00 36 1014.6
20260503195029 14 224 1.6 16.1 0.00 0.00 0.00 38 1015.0
20260503194832 15 112 1.6 14.5 0.00 0.00 0.00 38 1014.6
20260503194537 14 360 0.0 16.1 0.00 0.00 0.00 37 1015.0
20260503194326 15 224 3.2 14.5 0.00 0.00 0.00 37 1014.7
20260503194026 14 207 1.6 24.1 0.00 0.00 0.00 38 1015.2
20260503193823 15 271 3.2 24.1 0.00 0.00 0.00 38 1014.8
20260503193530 14 0 1.6 24.1 0.00 0.00 0.00 41 1015.2
20260503193337 14 348 4.8 24.1 0.00 0.00 0.00 39 1014.9
20260503193045 14 34 4.8 14.5 0.00 0.00 0.00 39 1015.3
20260503192832 15 326 6.4 14.5 0.00 0.00 0.00 37 1015.0
20260503192526 14 0 3.2 12.9 0.00 0.00 0.00 37 1015.5
20260503192325 15 356 1.6 12.9 0.00 0.00 0.00 41 1015.3
20260503192026 14 0 1.6 12.9 0.00 0.00 0.00 39 1015.7
20260503191822 15 254 1.6 11.3 0.00 0.00 0.00 39 1015.2
20260503191539 14 0 1.6 12.9 0.00 0.00 0.00 37 1015.5
20260503191319 14 251 3.2 11.3 0.00 0.00 0.00 40 1015.1
20260503191029 14 0 3.2 12.9 0.00 0.00 0.00 40 1015.6
20260503190836 14 356 3.2 12.9 0.00 0.00 0.00 41 1015.4
20260503190525 13 0 0.0 11.3 0.00 0.00 0.00 42 1015.8
20260503190329 14 214 1.6 9.7 0.00 0.00 0.00 40 1015.4
20260503190042 13 0 0.0 11.3 0.00 0.00 0.00 37 1015.7
20260503185821 14 214 1.6 9.7 0.00 0.00 0.00 40 1015.4
20260503185527 13 0 1.6 12.9 0.00 0.00 0.00 39 1015.8
20260503185322 14 203 1.6 12.9 0.00 0.00 0.00 40 1015.4
20260503185026 13 257 0.0 12.9 0.00 0.00 0.00 39 1015.9
20260503184818 14 38 1.6 12.9 0.00 0.00 0.00 40 1015.5
20260503184537 13 47 3.2 12.9 0.00 0.00 0.00 40 1016.0
20260503184333 14 42 3.2 12.9 0.00 0.00 0.00 45 1015.6
20260503184025 13 26 0.0 14.5 0.00 0.00 0.00 42 1016.0
20260503183825 14 98 1.6 14.5 0.00 0.00 0.00 43 1015.7
20260503183526 13 0 3.2 14.5 0.00 0.00 0.00 42 1016.0
20260503183319 13 248 3.2 14.5 0.00 0.00 0.00 44 1015.8
20260503183052 13 24 1.6 14.5 0.00 0.00 0.00 41 1016.2
20260503182830 13 132 1.6 14.5 0.00 0.00 0.00 41 1015.7
20260503182525 13 310 1.6 14.5 0.00 0.00 0.00 40 1016.1
20260503182344 13 9 3.2 14.5 0.00 0.00 0.00 39 1015.8
20260503182027 13 267 0.0 12.9 0.00 0.00 0.00 39 1016.1
20260503181817 14 235 1.6 11.3 0.00 0.00 0.00 40 1015.8
20260503181540 14 282 3.2 11.3 0.00 0.00 0.00 38 1016.1
20260503181331 14 235 1.6 9.7 0.00 0.00 0.00 40 1015.9
20260503181025 14 201 0.0 11.3 0.00 0.00 0.00 39 1016.1
20260503180824 14 333 1.6 11.3 0.00 0.00 0.00 41 1015.9
20260503180526 14 32 1.6 19.3 0.00 0.00 0.00 39 1016.2
20260503180318 14 11 1.6 19.3 0.00 0.00 0.00 42 1015.9
20260503180037 14 257 1.6 19.3 0.00 0.00 0.00 42 1016.3
20260503175836 14 229 3.2 19.3 0.00 0.00 0.00 40 1016.0
20260503175526 13 1 1.6 17.7 0.00 0.00 0.00 42 1016.2
20260503175329 14 19 1.6 16.1 0.00 0.00 0.00 43 1016.0
20260503175028 13 0 4.8 17.7 0.00 0.00 0.00 38 1016.3
20260503174822 14 267 4.8 14.5 0.00 0.00 0.00 39 1016.2
20260503174542 13 0 1.6 16.1 0.00 0.00 0.00 38 1016.3
20260503174319 14 173 1.6 8.0 0.00 0.00 0.00 42 1016.0
20260503174025 13 192 0.0 20.9 0.00 0.00 0.00 40 1016.3
20260503173817 14 269 0.0 20.9 0.00 0.00 0.00 41 1016.0
20260503173526 13 0 0.0 22.5 0.00 0.00 0.00 40 1016.3
20260503173333 14 327 3.2 20.9 0.00 0.00 0.00 38 1016.1
20260503173039 13 283 4.8 22.5 0.00 0.00 0.00 40 1016.4
20260503172828 14 7 3.2 20.9 0.00 0.00 0.00 44 1016.2
20260503172529 13 0 1.6 22.5 0.00 0.00 0.00 39 1016.5
20260503172322 14 325 1.6 12.9 0.00 0.00 0.00 45 1016.3
20260503172029 13 234 3.2 14.5 0.00 0.00 0.00 40 1016.4
20260503171820 14 17 1.6 11.3 0.00 0.00 0.00 41 1016.3
20260503171537 13 158 0.0 14.5 0.00 0.00 0.00 41 1016.5
20260503171318 13 13 0.0 14.5 0.00 0.00 0.00 40 1016.3
20260503171025 13 37 1.6 14.5 0.00 0.00 0.00 40 1016.5
20260503170851 13 25 4.8 14.5 0.00 0.00 0.00 43 1016.3
20260503170526 13 49 1.6 12.9 0.00 0.00 0.00 40 1016.5
20260503170343 13 360 4.8 12.9 0.00 0.00 0.00 42 1016.3
20260503150819 11 94 1.6 19.3 0.00 0.03 0.00 44 1017.3
20260503150525 11 45 3.2 20.9 0.00 0.03 0.00 43 1017.4
20260503150352 11 25 4.8 17.7 0.00 0.03 0.00 45 1017.3